Location: Boullarre
(49.1305°N, 3.0047°E)
Time: 06:23:22
(UTC+00:00)

Lacrosse 4 Rocket - Pass Details

Date: 03 February 2023
Orbit: 536 x 607 km, 68.0° (Epoch: 30 March)

Event Time Altitude Azimuth Distance (km) Brightness Sun altitude
Rises 19:12:53 0° 333° (NNW) 2,860 5.4 -23.9°
Reaches altitude 10° 19:16:31 10° 3° (N) 1,938 4.1 -24.5°
Enters shadow 19:16:31 10° 3° (N) 1,937 4.1 -24.5°
